This demonstration page uses our WeatherBlox Daily Observations layout. Learn more.

Left ArrowRight Arrow

Hourly Observations for March 28, 2018

Temp ( °F °C ) Dew Point ( °F °C ) Humidity (%) Winds ( mph kmh ) Pressure ( in mb ) Visibility ( mi km ) Precip ( " mm )
12:59 am 00:59 Cloudy 44 6.7 37 2.8 76 76 SSW 5 7 30.25 1024 10 16 0.00 0.00
1:59 am 01:59 Cloudy 45 7.2 38 3.3 77 77 S 5 7 30.21 1023 10 16 0.00 0.00
2:59 am 02:59 Cloudy 45 7.2 39 3.9 80 80 S 6 9 30.19 1023 10 16 0.00 0.00
3:59 am 03:59 Cloudy 46 7.8 39 3.9 77 77 SSW 7 11 30.16 1021 10 16 0.00 0.00
4:59 am 04:59 Cloudy 46 7.8 40 4.4 79 79 SW 8 13 30.14 1021 10 16 0.00 0.00
5:59 am 05:59 Mostly Cloudy 45 7.2 40 4.4 83 83 SW 6 9 30.13 1020 10 16 0.00 0.00
6:46 am 06:46 Mostly Cloudy 46 7.8 41 5 83 83 SW 8 13 30.12 1020 9 14 0.00 0.00
6:59 am 06:59 Mostly Cloudy 46 7.8 41 5 83 83 SSW 9 15 30.12 1020 8 13 0.00 0.00
7:13 am 07:13 Partly Cloudy 46 7.8 41 5 83 83 SSW 8 13 30.12 1020 8 13 0.00 0.00
7:38 am 07:38 Partly Cloudy 46 7.8 42 5.6 86 86 SW 10 17 30.12 1020 7 11 0.00 0.00
7:59 am 07:59 Partly Cloudy 47 8.3 43 6.1 86 86 SW 13 20 30.11 1020 7 11 0.00 0.00
8:59 am 08:59 Partly Cloudy 50 10 44 6.7 80 80 SW 10 17 30.11 1020 8 13 0.00 0.00
9:59 am 09:59 Partly Cloudy 55 12.8 46 7.8 72 72 WSW 9 15 30.10 1019 9 14 0.00 0.00
10:59 am 10:59 Partly Cloudy 59 15 47 8.3 64 64 W 10 17 30.08 1019 9 14 0.00 0.00
11:59 am 11:59 Partly Cloudy 64 17.8 49 9.4 58 58 W 9 15 30.08 1019 10 16 0.00 0.00
12:59 pm 12:59 Partly Cloudy 66 18.9 50 10 56 56 W 9 15 30.05 1018 10 16 0.00 0.00
1:59 pm 13:59 Partly Cloudy 69 20.6 51 10.6 53 53 WNW 6 9 30.02 1017 10 16 0.00 0.00
2:59 pm 14:59 Partly Cloudy 73 22.8 53 11.7 50 50 WSW 8 13 30.00 1016 10 16 0.00 0.00
3:59 pm 15:59 Partly Cloudy 66 18.9 49 9.4 54 54 NE 7 11 29.99 1016 10 16 0.00 0.00
4:59 pm 16:59 Mostly Cloudy 65 18.3 49 9.4 56 56 E 5 7 29.99 1016 9 14 0.00 0.00
5:59 pm 17:59 Mostly Cloudy 65 18.3 50 10 59 59 NE 5 7 30.00 1016 8 13 0.00 0.00
6:59 pm 18:59 Mostly Cloudy 63 17.2 51 10.6 65 65 ESE 7 11 30.02 1017 9 14 0.00 0.00
7:59 pm 19:59 Mostly Cloudy 63 17.2 51 10.6 65 65 SSE 5 7 30.01 1016 10 16 0.00 0.00
8:59 pm 20:59 Mostly Cloudy 64 17.8 52 11.1 65 65 SE 3 6 30.02 1017 9 14 0.00 0.00
9:59 pm 21:59 Mostly Cloudy 60 15.6 52 11.1 75 75 S 5 7 30.03 1017 9 14 0.00 0.00
10:59 pm 22:59 Partly Cloudy 65 18.3 55 12.8 70 70 SSW 7 11 30.02 1017 10 16 0.00 0.00
11:59 pm 23:59 Mostly Cloudy 68 20 54 12.2 61 61 SW 9 15 30.02 1017 10 16 0.00 0.00

Powered by AerisWeather